Flag for U.S.A. Weather past 2 weeks in San Bernardino, California, U.S.A.

Now
72 °F

Clear.


Feels Like: 76 °F
Forecast: 65 / 91 °F
Wind: 3 mph from North

Location: Riverside Municipal Airport

Current Time: Aug 31, 2015 at 2:28:52 AM

Latest Report: Aug 31, 2015 at 1:53 AM


Visibility: 10 mi

Pressure: 29.80 "Hg

Humidity: 64%

Dew point: 59 °F

Location of San BernardinoLocation

Historic Weather in San Bernardino — Graph

°F

San Bernardino temperature yesterday

Maximum temperature yesterday: 95 °F (at 2:53 PM)
Minimum temperature yesterday: 71 °F (at 5:53 AM)
Average temperature yesterday: 81 °F

Past Weeks' High & Low Weather Summary

 TemperatureHumidityPressure
High106 °F (Aug 16, 1:53 PM)91% (Aug 19, 6:53 AM)29.95 "Hg (Aug 19, 6:53 AM)
Low65 °F (Aug 19, 5:53 AM)8% (Aug 16, 1:53 PM)29.74 "Hg (Aug 16, 5:53 PM)
Average80 °F53%29.85 "Hg
* Reported Aug 16 12:53 AM — Aug 31 12:53 AM, San Bernardino, Weather by CustomWeather, © 2015

Note: Actual official high and low records may vary slightly from our data, if they occured in-between our weather recording intervals... More about our weather records

Advertising

San Bernardino weather history for previous 24 hours

 ConditionsComfort  
Time TempWeatherWind HumidityBarometerVisibility
12:53 AM
Mon, Aug 31
73 °FClear.No wind62%29.82 "Hg10 mi
11:53 PM
Sun, Aug 30
74 °FClear.No wind60%29.82 "Hg10 mi
10:53 PM74 °FClear.3 mph62%29.82 "Hg10 mi
9:53 PM76 °FClear.No wind60%29.82 "Hg10 mi
8:53 PM77 °FClear.3 mph60%29.80 "Hg10 mi
7:53 PM80 °FSunny.7 mph52%29.78 "Hg10 mi
6:53 PM84 °FSunny.8 mph45%29.76 "Hg10 mi
5:53 PM88 °FSunny.14 mph39%29.76 "Hg10 mi
4:53 PM92 °FSunny.8 mph32%29.77 "Hg10 mi
3:53 PM93 °FSunny.9 mph31%29.78 "Hg10 mi
2:53 PM95 °FSunny.12 mph30%29.79 "Hg10 mi
1:53 PM94 °FSunny.8 mph30%29.81 "Hg10 mi
12:53 PM93 °FSunny.7 mph33%29.83 "Hg10 mi
11:53 AM90 °FPassing clouds.6 mph35%29.85 "Hg10 mi
10:53 AM86 °FSunny.7 mph42%29.87 "Hg10 mi
9:53 AM83 °FSunny.No wind46%29.87 "Hg10 mi
8:53 AM78 °FSunny.5 mph58%29.87 "Hg10 mi
7:53 AM75 °FSunny.No wind58%29.87 "Hg10 mi
6:53 AM72 °FClear.No wind66%29.86 "Hg10 mi
5:53 AM71 °FClear.No wind68%29.84 "Hg10 mi
4:53 AM72 °FClear.No wind66%29.83 "Hg10 mi
3:53 AM74 °FClear.No wind62%29.83 "Hg10 mi
2:53 AM75 °FClear.No wind58%29.83 "Hg10 mi
Weather by CustomWeather, © 2015

See weather overviewHow to use our weather pages